1506049201.05,51435,13.0,73474.0,-3.57,-4.13,-4.13,0,*57
1506049202.26,51436,13.0,73472.8,-3.57,-4.21,-4.13,0,*55
1506049203.47,51437,13.06,73472.5,-3.57,-4.21,-4.13,0,*54
1506049204.68,51438,13.06,73472.3,-3.57,-4.13,-4.21,0,*5B
1506049205.9,51439,13.0,73472.3,-3.55,-4.09,-4.09,0,*59
1506049207.1,51440,13.0,73474.0,-3.57,-4.13,-4.13,0,*55
1506049208.32,51441,13.0,73474.3,-3.55,-4.09,-4.09,0,*56
1506049209.52,51442,13.06,73476.5,-3.57,-4.13,-4.13,0,*57
1506049210.72,51443,13.06,73476.5,-3.57,-4.13,-4.09,0,*5D
1506049211.94,51444,13.06,73476.3,-3.55,-4.09,-4.09,0,*53
1506049213.16,51445,13.06,73478.8,-3.55,-4.09,-4.09,0,*52
1506049214.36,51446,13.0,73474.8,-3.57,-4.13,-4.09,0,*58
1506049215.57,51447,13.0,73472.0,-3.55,-4.05,-4.05,0,*50
1506049216.79,51448,13.0,73472.5,-3.55,-4.09,-4.09,0,*5F
1506049218.01,51449,13.06,73474.0,-3.55,-4.09,-4.05,0,*52
1506049219.23,51450,13.06,73478.8,-3.55,-4.09,-4.09,0,*56
1506049220.45,51451,13.06,73474.5,-3.55,-4.09,-4.09,0,*57
1506049221.67,51452,13.0,73474.0,-3.55,-4.05,-4.09,0,*58
1506049222.89,51453,13.0,73474.8,-3.55,-4.09,-4.09,0,*55
1506049224.11,51454,13.0,73472.8,-3.55,-4.09,-4.09,0,*52
1506049225.33,51455,13.06,73476.8,-3.55,-4.09,-4.09,0,*53
1506049226.55,51456,13.06,73472.3,-3.55,-4.09,-4.09,0,*50
1506049227.76,51457,13.0,73474.8,-3.55,-4.17,-4.09,0,*5E
1506049228.98,51458,13.0,73474.0,-3.55,-4.17,-4.09,0,*51
1506049230.2,51459,13.06,73478.5,-3.55,-4.17,-4.17,0,*5F
1506049231.4,51460,13.06,73476.8,-3.53,-4.21,-4.09,0,*59
1506049232.6,51461,13.0,73474.0,-3.53,-4.17,-4.17,0,*52
1506049233.79,51462,13.06,73476.0,-3.53,-4.17,-4.17,0,*51
1506049234.98,51463,13.0,73472.5,-3.53,-4.17,-4.17,0,*50
1506049236.18,51464,13.0,73474.8,-3.53,-4.17,-4.17,0,*57
1506049237.4,51465,13.0,73474.8,-3.51,-4.17,-4.17,0,*54
1506049238.59,51466,13.06,73474.0,-3.53,-4.17,-4.17,0,*55
1506049239.8,51467,13.06,73474.5,-3.53,-4.17,-4.21,0,*51
1506049240.99,51468,13.0,73472.0,-3.53,-4.17,-4.17,0,*5B
1506049242.2,51469,13.0,73472.8,-3.53,-4.17,-4.21,0,*5F
1506049243.39,51470,13.06,73476.3,-3.53,-4.17,-4.17,0,*52
1506049244.6,51471,13.0,73472.5,-3.53,-4.21,-4.21,0,*53
1506049245.8,51472,13.0,73474.8,-3.53,-4.21,-4.17,0,*55
1506049247.03,51473,13.06,73474.8,-3.51,-4.13,-4.13,0,*53
1506049248.25,51474,13.06,73476.0,-3.51,-4.13,-4.13,0,*54
1506049249.47,51475,13.06,73474.8,-3.53,-4.21,-4.21,0,*57
1506049250.67,51476,13.0,73474.8,-3.53,-4.21,-4.17,0,*51
1506049251.86,51477,13.06,73474.3,-3.49,-4.17,-4.17,0,*5E
1506049253.07,51478,13.0,73474.8,-3.53,-4.21,-4.21,0,*5A
1506049254.29,51479,13.0,73472.8,-3.51,-4.13,-4.17,0,*5D
1506049255.51,51480,13.06,73474.3,-3.51,-4.13,-4.17,0,*5B
1506049256.73,51481,13.0,73474.3,-3.51,-4.17,-4.13,0,*5A
1506049257.96,51482,13.06,73474.8,-3.51,-4.17,-4.13,0,*59
1506049259.18,51483,13.0,73474.5,-3.51,-4.13,-4.17,0,*58
1506049260.39,51484,13.06,73472.8,-3.53,-4.21,-4.21,0,*59
1506049261.61,51485,13.06,73474.3,-3.51,-4.17,-4.13,0,*5E
1506049262.83,51486,13.06,73472.3,-3.51,-4.17,-4.17,0,*59
1506049264.05,51487,13.06,73474.8,-3.51,-4.17,-4.17,0,*58
1506049265.27,51488,13.06,73476.8,-3.51,-4.13,-4.17,0,*53
1506049266.47,51489,13.06,73472.0,-3.53,-4.21,-4.17,0,*51
1506049267.69,51490,13.06,73474.0,-3.51,-4.17,-4.13,0,*5A
1506049268.92,51491,13.06,73474.3,-3.51,-4.17,-4.13,0,*5B
1506049270.14,51492,13.0,73472.8,-3.51,-4.13,-4.13,0,*5C
1506049271.37,51493,13.06,73472.5,-3.51,-4.17,-4.13,0,*59
1506049272.59,51494,13.06,73476.8,-3.51,-4.17,-4.13,0,*5E
1506049273.81,51495,13.0,73472.5,-3.51,-4.17,-4.17,0,*5B
1506049275.03,51496,13.0,73472.5,-3.51,-4.17,-4.17,0,*58
1506049276.22,51497,13.06,73476.3,-3.53,-4.17,-4.17,0,*5B
1506049277.44,51498,13.06,73478.0,-3.51,-4.17,-4.17,0,*56
1506049278.67,51499,13.06,73474.8,-3.51,-4.13,-4.13,0,*57
1506049279.88,51500,13.06,73474.3,-3.51,-4.17,-4.17,0,*56
1506049281.07,51501,13.06,73474.8,-3.49,-4.17,-4.17,0,*5E
1506049282.27,51502,13.06,73478.8,-3.53,-4.17,-4.17,0,*56
1506049283.49,51503,13.06,73474.3,-3.51,-4.17,-4.17,0,*55
1506049284.71,51504,13.06,73476.0,-3.51,-4.13,-4.17,0,*56
1506049285.93,51505,13.06,73478.3,-3.51,-4.17,-4.25,0,*52
1506049287.15,51506,13.0,73472.5,-3.51,-4.13,-4.17,0,*54
1506049288.38,51507,13.0,73470.3,-3.51,-4.13,-4.13,0,*51
1506049289.6,51508,13.06,73476.3,-3.51,-4.13,-4.13,0,*5E
1506049290.82,51509,13.06,73478.5,-3.51,-4.25,-4.17,0,*5E
1506049292.04,51510,13.0,73472.3,-3.51,-4.17,-4.17,0,*57
1506049293.26,51511,13.0,73474.3,-3.51,-4.17,-4.17,0,*56
1506049294.48,51512,13.0,73474.5,-3.51,-4.13,-4.25,0,*50
1506049295.71,51513,13.0,73474.0,-3.51,-4.17,-4.13,0,*50
1506049296.93,51514,13.06,73474.3,-3.51,-4.17,-4.17,0,*53
1506049298.12,51515,13.0,73474.0,-3.49,-4.17,-4.17,0,*5B
1506049299.31,51516,13.06,73474.5,-3.49,-4.17,-4.17,0,*58
1506049300.5,51517,13.0,73472.5,-3.49,-4.17,-4.17,0,*59
1506049301.7,51518,13.0,73474.0,-3.49,-4.13,-4.17,0,*52
1506049302.89,51519,13.06,73478.0,-3.49,-4.25,-4.17,0,*56
1506049304.09,51520,13.0,73472.0,-3.49,-4.17,-4.25,0,*5C
1506049305.32,51521,13.06,73474.5,-3.51,-4.13,-4.25,0,*50
1506049306.54,51522,13.06,73474.3,-3.51,-4.17,-4.25,0,*57
1506049307.75,51523,13.0,73472.5,-3.49,-4.25,-4.25,0,*5E
1506049308.95,51524,13.0,73474.5,-3.53,-4.29,-4.33,0,*59
1506049310.17,51525,13.06,73476.8,-3.51,-4.25,-4.25,0,*51
1506049311.38,51526,13.0,73474.3,-3.49,-4.25,-4.25,0,*5B
1506049312.58,51527,13.0,73474.3,-3.49,-4.29,-4.25,0,*56
1506049313.78,51528,13.06,73476.3,-3.49,-4.25,-4.29,0,*59
1506049314.98,51529,13.06,73474.8,-3.49,-4.29,-4.25,0,*58
1506049316.21,51530,13.06,73476.8,-3.51,-4.29,-4.25,0,*59
1506049317.43,51531,13.06,73478.0,-3.51,-4.29,-4.25,0,*58
1506049318.66,51532,13.0,73472.8,-3.51,-4.25,-4.29,0,*5B
1506049319.89,51533,13.06,73474.8,-3.51,-4.29,-4.29,0,*56
1506049321.11,51534,13.06,73472.5,-3.51,-4.29,-4.29,0,*51
1506049322.34,51535,13.06,73476.8,-3.51,-4.25,-4.29,0,*5C
1506049323.57,51536,13.0,73474.3,-3.51,-4.25,-4.29,0,*5F
1506049324.8,51537,13.06,73476.3,-3.51,-4.29,-4.29,0,*52
1506049326.02,51538,13.06,73474.0,-3.51,-4.29,-4.25,0,*51
1506049327.23,51539,13.0,73474.8,-3.49,-4.25,-4.25,0,*55
1506049328.46,51540,13.06,73476.0,-3.51,-4.25,-4.25,0,*52
1506049329.68,51541,13.06,73476.8,-3.51,-4.29,-4.25,0,*5F
1506049330.91,51542,13.0,73474.3,-3.51,-4.29,-4.25,0,*5C
1506049332.14,51543,13.0,73474.3,-3.51,-4.29,-4.29,0,*51
1506049333.36,51544,13.06,73476.5,-3.51,-4.29,-4.29,0,*56
1506049334.59,51545,13.06,73474.3,-3.51,-4.29,-4.25,0,*5B
1506049335.82,51546,13.0,73474.5,-3.51,-4.25,-4.25,0,*54
1506049337.04,51547,13.06,73474.3,-3.51,-4.29,-4.29,0,*55
1506049338.27,51548,13.06,73472.3,-3.51,-4.25,-4.25,0,*5A
1506049339.5,51549,13.06,73474.5,-3.51,-4.17,-4.29,0,*56
1506049340.72,51550,13.06,73472.3,-3.51,-4.29,-4.25,0,*5F
1506049341.95,51551,13.06,73474.8,-3.51,-4.29,-4.25,0,*5E
1506049343.17,51552,13.06,73476.3,-3.51,-4.29,-4.25,0,*5D
1506049344.4,51553,13.06,73478.0,-3.51,-4.29,-4.29,0,*50
1506049345.63,51554,13.0,73474.8,-3.51,-4.29,-4.29,0,*57
1506049346.85,51555,13.0,73472.8,-3.51,-4.29,-4.25,0,*5A
1506049348.08,51556,13.0,73472.8,-3.51,-4.25,-4.25,0,*55
1506049349.31,51557,13.0,73474.8,-3.51,-4.29,-4.25,0,*58
1506049350.54,51558,13.06,73476.5,-3.51,-4.29,-4.29,0,*5B
1506049351.76,51559,13.06,73476.0,-3.51,-4.29,-4.29,0,*5A
1506049352.99,51560,13.06,73478.5,-3.51,-4.25,-4.25,0,*50
1506049354.22,51561,13.06,73478.3,-3.51,-4.25,-4.29,0,*5D
1506049355.45,51562,13.0,73472.0,-3.51,-4.29,-4.25,0,*5E
1506049356.67,51563,13.06,73476.5,-3.51,-4.25,-4.25,0,*53
1506049357.9,51564,13.06,73478.3,-3.51,-4.25,-4.29,0,*58
1506049359.13,51565,13.06,73478.3,-3.51,-4.25,-4.17,0,*54
1506049360.36,51566,13.06,73476.5,-3.51,-4.25,-4.25,0,*56
1506049361.58,51567,13.06,73476.8,-3.51,-4.29,-4.29,0,*57
1506049362.81,51568,13.0,73472.3,-3.51,-4.25,-4.25,0,*58
1506049364.04,51569,13.06,73474.5,-3.51,-4.25,-4.25,0,*59
1506049365.27,51570,13.0,73472.8,-3.51,-4.25,-4.25,0,*51
1506049366.49,51571,13.06,73478.0,-3.51,-4.25,-4.17,0,*51
1506049367.72,51572,13.06,73472.8,-3.51,-4.25,-4.25,0,*53
1506049368.95,51573,13.06,73474.3,-3.51,-4.25,-4.25,0,*52
1506049370.17,51574,13.06,73476.5,-3.51,-4.29,-4.25,0,*59
1506049371.4,51575,13.0,73472.0,-3.51,-4.25,-4.13,0,*51
1506049372.6,51576,13.06,73476.0,-3.49,-4.25,-4.17,0,*5F
1506049373.8,51577,13.0,73474.0,-3.49,-4.17,-4.13,0,*5B
1506049374.99,51578,13.06,73476.0,-3.49,-4.17,-4.17,0,*50
1506049376.18,51579,13.06,73478.8,-3.49,-4.17,-4.17,0,*51
1506049377.39,51580,13.06,73476.5,-3.49,-4.25,-4.25,0,*57
1506049378.59,51581,13.06,73476.3,-3.49,-4.25,-4.25,0,*56
1506049379.79,51582,13.06,73478.3,-3.49,-4.25,-4.13,0,*50
1506049380.99,51583,13.0,73474.5,-3.49,-4.25,-4.17,0,*55
1506049382.19,51584,13.0,73474.8,-3.49,-4.25,-4.29,0,*5F
1506049383.42,51585,13.0,73474.0,-3.47,-4.21,-4.21,0,*5C
1506049384.65,51586,13.06,73476.3,-3.47,-4.21,-4.21,0,*5F
1506049385.84,51587,13.06,73478.8,-3.49,-4.25,-4.17,0,*51
1506049387.07,51588,13.0,73472.0,-3.47,-4.25,-4.21,0,*55
1506049388.27,51589,13.06,73478.3,-3.49,-4.17,-4.25,0,*5F
1506049389.47,51590,13.0,73474.5,-3.49,-4.25,-4.25,0,*56
1506049390.68,51591,13.06,73478.0,-3.49,-4.25,-4.29,0,*5B
1506049391.88,51592,13.06,73478.8,-3.49,-4.25,-4.25,0,*54
1506049393.11,51593,13.06,73474.3,-3.47,-4.21,-4.21,0,*5B
1506049394.31,51594,13.0,73474.5,-3.49,-4.29,-4.25,0,*5E
1506049395.51,51595,13.06,73476.5,-3.49,-4.25,-4.29,0,*5F
1506049396.71,51596,13.0,73472.3,-3.49,-4.25,-4.17,0,*51
1506049397.91,51597,13.06,73476.3,-3.49,-4.25,-4.17,0,*50
1506049399.11,51598,13.06,73476.8,-3.49,-4.25,-4.25,0,*5E
1506049400.34,51599,13.0,73472.3,-3.47,-4.21,-4.21,0,*51
1506049401.57,51600,13.0,73474.0,-3.47,-4.21,-4.21,0,*52
1506049402.79,51601,13.0,73474.8,-3.47,-4.25,-4.21,0,*57
1506049404.0,51602,13.06,73476.3,-3.49,-4.25,-4.25,0,*5E
1506049405.22,51603,13.06,73478.0,-3.47,-4.13,-4.21,0,*50
1506049406.42,51604,13.0,73474.0,-3.49,-4.17,-4.13,0,*5C
1506049407.65,51605,13.06,73474.0,-3.47,-4.21,-4.21,0,*57
1506049408.87,51606,13.06,73476.0,-3.47,-4.13,-4.21,0,*55
1506049410.09,51607,13.06,73478.3,-3.47,-4.13,-4.13,0,*55
1506049411.3,51608,13.06,73476.3,-3.47,-4.13,-4.13,0,*5A
1506049412.5,51609,13.06,73478.0,-3.49,-4.13,-4.17,0,*51
1506049413.71,51610,13.0,73474.3,-3.47,-4.13,-4.09,0,*58
1506049414.91,51611,13.0,73472.3,-3.49,-4.17,-4.13,0,*58
1506049416.13,51612,13.0,73474.0,-3.47,-4.13,-4.09,0,*5A
1506049417.34,51613,13.0,73472.5,-3.47,-4.09,-4.09,0,*50
1506049418.56,51614,13.06,73474.3,-3.47,-4.13,-4.13,0,*57
1506049419.78,51615,13.0,73474.5,-3.47,-4.13,-4.09,0,*5D
1506049420.99,51616,13.0,73474.5,-3.47,-4.13,-4.13,0,*55
1506049422.21,51617,13.06,73476.0,-3.47,-4.09,-4.09,0,*54
1506049423.4,51618,13.0,73472.5,-3.45,-4.09,-4.09,0,*59
1506049424.6,51619,13.0,73474.8,-3.45,-4.09,-4.13,0,*53
1506049425.79,51620,13.0,73476.3,-3.45,-4.09,-4.13,0,*59
1506049427.01,51621,13.06,73478.3,-3.45,-4.09,-4.01,0,*5B
1506049428.23,51622,13.0,73474.5,-3.45,-4.01,-4.09,0,*58
1506049429.42,51623,13.0,73472.8,-3.45,-4.09,-4.09,0,*51
1506049430.62,51624,13.06,73476.5,-3.45,-4.09,-4.09,0,*56
1506049431.87,51625,13.0,73476.3,-3.45,-4.01,-4.01,0,*57
1506049433.11,51626,13.0,73474.5,-3.45,-4.01,-4.01,0,*54
1506049434.34,51627,13.06,73478.8,-3.43,-3.95,-3.95,0,*53
1506049435.56,51628,13.0,73476.0,-3.45,-4.01,-3.95,0,*50
1506049436.78,51629,13.06,73476.0,-3.45,-3.95,-4.01,0,*51
1506049437.99,51630,13.0,73476.3,-3.45,-3.91,-3.95,0,*57
1506049439.2,51631,13.06,73476.3,-3.43,-4.05,-3.95,0,*5A
1506049440.43,51632,13.0,73472.8,-3.43,-3.95,-3.91,0,*53
1506049441.66,51633,13.0,73478.5,-3.43,-3.91,-3.95,0,*52
1506049442.88,51634,13.0,73476.0,-3.45,-4.01,-3.95,0,*5D
1506049444.1,51635,13.06,73476.0,-3.43,-3.95,-3.95,0,*50
1506049445.31,51636,13.0,73474.8,-3.39,-3.91,-3.91,0,*5E
1506049446.56,51637,13.06,73478.5,-3.45,-4.01,-4.01,0,*54
1506049447.79,51638,13.0,73476.3,-3.43,-3.95,-3.91,0,*59
1506049448.99,51639,13.0,73476.5,-3.39,-3.91,-4.05,0,*5B
1506049450.21,51640,13.06,73478.8,-3.43,-4.05,-3.95,0,*5C
1506049451.43,51641,13.0,73476.3,-3.43,-3.95,-3.95,0,*53
1506049452.66,51642,13.06,73476.5,-3.43,-3.95,-3.95,0,*50
1506049453.88,51643,13.0,73474.0,-3.43,-3.95,-3.95,0,*51
1506049455.1,51644,13.06,73478.8,-3.43,-3.95,-3.95,0,*56
1506049456.33,51645,13.06,73480.0,-3.43,-3.95,-3.95,0,*57
1506049457.55,51646,13.06,73476.8,-3.43,-3.91,-4.05,0,*5E
1506049458.78,51647,13.0,73478.0,-3.43,-3.95,-4.05,0,*5B
1506049459.99,51648,13.0,73478.0,-3.39,-3.91,-3.91,0,*57
1506049461.21,51649,13.06,73478.3,-3.43,-3.95,-4.05,0,*55
1506049462.41,51650,13.0,73474.8,-3.39,-3.91,-3.87,0,*59
1506049463.64,51651,13.06,73478.3,-3.37,-4.05,-3.91,0,*5B
1506049464.9,51652,13.0,73472.8,-3.37,-4.01,-3.91,0,*5C
1506049466.11,51653,13.06,73478.3,-3.43,-4.05,-3.95,0,*5E
1506049467.33,51654,13.06,73478.5,-3.43,-4.05,-3.95,0,*59
1506049468.56,51655,13.06,73476.5,-3.39,-4.01,-3.91,0,*55
1506049469.81,51656,13.06,73476.8,-3.39,-4.01,-4.01,0,*58
1506049471.07,51657,13.0,73476.8,-3.37,-4.01,-3.91,0,*59
1506049472.3,51658,13.0,73474.3,-3.39,-4.01,-3.91,0,*58
1506049473.55,51659,13.0,73474.8,-3.39,-4.01,-4.01,0,*57
1506049474.8,51660,13.0,73474.0,-3.39,-4.01,-4.01,0,*5D
1506049475.99,51661,13.06,73480.8,-3.39,-3.87,-3.87,0,*5C
1506049477.2,51662,13.06,73478.5,-3.39,-3.91,-3.87,0,*58
1506049478.4,51663,13.06,73476.3,-3.39,-3.91,-3.91,0,*5E
1506049479.61,51664,13.0,73474.3,-3.39,-3.91,-3.91,0,*59
1506049480.84,51665,13.06,73478.3,-3.37,-3.91,-3.87,0,*51
1506049482.07,51666,13.0,73476.3,-3.37,-3.91,-3.91,0,*55
1506049483.31,51667,13.0,73478.5,-3.37,-3.91,-3.91,0,*54
1506049484.54,51668,13.0,73474.8,-3.37,-3.87,-3.91,0,*5C
1506049485.77,51669,13.0,73476.8,-3.37,-3.91,-3.91,0,*5A
1506049487.03,51670,13.06,73476.0,-3.37,-4.01,-3.87,0,*5B
1506049488.26,51671,13.06,73476.8,-3.37,-3.91,-3.91,0,*53
1506049489.48,51672,13.0,73476.5,-3.37,-3.87,-3.87,0,*50
1506049490.69,51673,13.0,73472.0,-3.39,-3.91,-3.91,0,*5F
1506049491.92,51674,13.0,73478.5,-3.37,-3.91,-3.87,0,*51
1506049493.15,51675,13.0,73474.5,-3.37,-3.91,-3.87,0,*50
1506049494.41,51676,13.0,73476.3,-3.37,-3.91,-4.01,0,*5A
1506049495.64,51677,13.0,73476.0,-3.37,-3.91,-3.87,0,*52
1506049496.88,51678,13.06,73476.3,-3.37,-3.91,-3.91,0,*5A
1506049498.11,51679,13.06,73480.5,-3.37,-3.87,-3.91,0,*5C
1506049499.34,51680,13.0,73478.0,-3.37,-3.91,-3.91,0,*5D
1506049500.58,51681,13.06,73476.8,-3.37,-3.91,-3.91,0,*5C
1506049501.81,51682,13.0,73474.3,-3.37,-3.91,-3.91,0,*5F
1506049503.01,51683,13.0,73476.3,-3.35,-3.87,-3.87,0,*5C
1506049504.22,51684,13.0,73476.0,-3.35,-3.83,-3.83,0,*5B
1506049505.43,51685,13.0,73478.3,-3.35,-3.83,-3.83,0,*5A
1506049506.65,51686,13.06,73476.5,-3.33,-3.87,-3.83,0,*5B
1506049507.85,51687,13.06,73476.8,-3.35,-3.87,-3.83,0,*5C
1506049509.08,51688,13.06,73482.5,-3.33,-3.87,-3.87,0,*51
1506049510.31,51689,13.0,73474.3,-3.33,-3.83,-3.83,0,*50
1506049511.51,51690,13.0,73474.8,-3.35,-3.87,-3.87,0,*5E
1506049512.71,51691,13.06,73476.3,-3.35,-3.87,-3.87,0,*5F
1506049513.91,51692,13.0,73474.5,-3.35,-3.87,-3.87,0,*5C
1506049515.12,51693,13.06,73480.0,-3.35,-3.83,-3.87,0,*59
1506049516.32,51694,13.0,73476.5,-3.35,-3.87,-3.87,0,*5A
1506049517.52,51695,13.0,73474.3,-3.35,-3.87,-3.83,0,*5F
1506049518.72,51696,13.0,73474.3,-3.35,-3.87,-3.87,0,*58
1506049519.95,51697,13.0,73474.3,-3.33,-3.83,-3.83,0,*5F
1506049521.17,51698,13.0,73472.3,-3.33,-3.87,-3.87,0,*50
1506049522.4,51699,13.06,73478.5,-3.33,-3.87,-3.83,0,*55
1506049523.61,51700,13.0,73476.5,-3.35,-3.83,-3.83,0,*56
1506049524.84,51701,13.0,73478.0,-3.33,-3.83,-3.83,0,*51
1506049526.07,51702,13.06,73476.3,-3.33,-3.83,-3.83,0,*52
1506049527.3,51703,13.06,73480.5,-3.33,-3.83,-3.83,0,*53
1506049528.55,51704,13.06,73478.8,-3.29,-3.79,-3.71,0,*57
1506049529.78,51705,13.0,73472.8,-3.33,-3.83,-3.75,0,*5C
1506049531.01,51706,13.0,73476.3,-3.33,-3.75,-3.75,0,*56
1506049532.25,51707,13.06,73480.0,-3.33,-3.75,-3.75,0,*57
1506049533.5,51708,13.0,73478.5,-3.29,-3.79,-3.71,0,*5B
1506049534.76,51709,13.06,73480.3,-3.29,-3.71,-3.67,0,*55
1506049536.02,51710,13.06,73478.0,-3.29,-3.71,-3.71,0,*5A
1506049537.29,51711,13.06,73480.0,-3.29,-3.67,-3.71,0,*5C
1506049538.53,51712,13.0,73478.3,-3.29,-3.71,-3.79,0,*50
1506049539.77,51713,13.0,73472.5,-3.27,-3.71,-3.71,0,*57
1506049541.01,51714,13.0,73476.8,-3.29,-3.79,-3.71,0,*56
1506049542.22,51715,13.0,73478.8,-3.27,-3.79,-3.79,0,*51
1506049543.42,51716,13.0,73478.3,-3.27,-3.79,-3.79,0,*52
1506049544.67,51717,13.06,73480.3,-3.29,-3.79,-3.71,0,*55
1506049545.89,51718,13.0,73476.5,-3.27,-3.79,-3.71,0,*54
1506049547.09,51719,13.0,73478.3,-3.27,-3.79,-3.83,0,*58
1506049548.29,51720,13.0,73478.0,-3.27,-3.83,-3.83,0,*57
1506049549.49,51721,13.0,73476.3,-3.27,-3.83,-3.83,0,*56
1506049550.69,51722,13.0,73474.5,-3.27,-3.79,-3.83,0,*50
1506049551.89,51723,13.0,73476.0,-3.27,-3.83,-3.83,0,*54
1506049553.12,51724,13.06,73478.0,-3.29,-3.91,-3.83,0,*5E
1506049554.32,51725,13.06,73476.5,-3.27,-3.91,-3.83,0,*51
1506049555.55,51726,13.06,73476.0,-3.29,-3.83,-3.83,0,*5F
1506049556.75,51727,13.06,73478.8,-3.27,-3.95,-3.83,0,*57
1506049557.95,51728,13.0,73476.3,-3.27,-3.91,-3.83,0,*5C
1506049559.15,51729,13.06,73478.8,-3.27,-3.83,-3.83,0,*5E
1506049560.38,51730,13.0,73476.8,-3.29,-3.95,-3.95,0,*58
1506049561.58,51731,13.06,73482.3,-3.27,-3.91,-3.91,0,*57
1506049562.81,51732,13.0,73478.8,-3.29,-3.83,-3.91,0,*59
1506049564.05,51733,13.0,73478.5,-3.29,-3.91,-3.91,0,*5B
1506049565.25,51734,13.06,73478.0,-3.27,-3.91,-3.91,0,*52
1506049566.45,51735,13.0,73478.8,-3.27,-3.95,-3.91,0,*57
1506049567.66,51736,13.0,73476.5,-3.27,-3.91,-3.91,0,*50
1506049568.86,51737,13.0,73478.3,-3.27,-3.91,-3.83,0,*52
1506049570.06,51738,13.0,73476.0,-3.27,-3.83,-3.91,0,*5D
1506049571.3,51739,13.0,73476.0,-3.29,-3.91,-3.91,0,*51
1506049572.53,51740,13.0,73478.0,-3.29,-3.95,-3.91,0,*5B
1506049573.73,51741,13.0,73474.3,-3.27,-3.95,-3.91,0,*54
1506049574.93,51742,13.0,73478.8,-3.27,-3.91,-3.91,0,*53
1506049576.13,51743,13.06,73480.0,-3.27,-3.91,-3.95,0,*56
1506049577.34,51744,13.0,73474.8,-3.27,-3.91,-3.91,0,*55
1506049578.54,51745,13.0,73478.8,-3.27,-3.91,-3.95,0,*50
1506049579.77,51746,13.06,73480.3,-3.29,-3.91,-3.95,0,*5D
1506049580.97,51747,13.0,73478.8,-3.27,-3.91,-3.95,0,*52
1506049582.18,51748,13.0,73476.0,-3.27,-3.91,-3.91,0,*59
1506049583.41,51749,13.0,73474.3,-3.29,-3.95,-3.91,0,*52
1506049584.61,51750,13.0,73476.3,-3.27,-3.91,-3.95,0,*54
1506049585.81,51751,13.0,73478.3,-3.27,-3.95,-3.95,0,*51
1506049587.01,51752,13.0,73478.5,-3.27,-3.91,-3.91,0,*52
1506049588.21,51753,13.0,73476.5,-3.27,-3.95,-3.95,0,*53
1506049589.41,51754,13.06,73476.5,-3.27,-3.91,-3.95,0,*50
1506049590.62,51755,13.0,73474.3,-3.27,-3.95,-3.91,0,*51
1506049591.82,51756,13.0,73478.0,-3.27,-3.91,-3.83,0,*55
1506049593.04,51757,13.0,73474.5,-3.29,-3.95,-3.95,0,*59
1506049594.25,51758,13.0,73476.0,-3.27,-3.91,-3.91,0,*58
1506049595.46,51759,13.0,73476.0,-3.27,-3.91,-3.91,0,*59
1506049596.68,51760,13.0,73478.8,-3.29,-3.91,-3.95,0,*59
1506049597.89,51761,13.0,73474.0,-3.27,-3.91,-3.91,0,*52
1506049599.09,51762,13.0,73478.3,-3.27,-3.95,-3.91,0,*55
1506049600.32,51763,13.0,73476.5,-3.25,-3.87,-3.79,0,*53
1506049601.54,51764,13.0,73476.8,-3.25,-3.87,-3.75,0,*58
1506049602.77,51765,13.0,73474.0,-3.25,-3.75,-3.79,0,*58
1506049604.0,51766,13.0,73476.0,-3.25,-3.79,-3.79,0,*57
1506049605.23,51767,13.0,73474.5,-3.25,-3.79,-3.79,0,*56
1506049606.46,51768,13.0,73474.0,-3.25,-3.79,-3.79,0,*59
1506049607.69,51769,13.0,73476.5,-3.25,-3.79,-3.79,0,*58
1506049608.92,51770,13.0,73474.8,-3.25,-3.87,-3.79,0,*51
1506049610.14,51771,13.0,73474.0,-3.25,-3.87,-3.75,0,*5C
1506049611.35,51772,13.0,73474.0,-3.23,-3.83,-3.75,0,*5D
1506049612.57,51773,13.0,73474.5,-3.25,-3.87,-3.79,0,*52
1506049613.77,51774,13.0,73476.5,-3.23,-3.83,-3.87,0,*56
1506049614.97,51775,13.0,73474.5,-3.23,-3.87,-3.87,0,*53
1506049616.19,51776,13.0,73478.3,-3.25,-3.91,-3.87,0,*51
1506049617.43,51777,13.0,73472.0,-3.25,-3.91,-3.91,0,*57
1506049618.66,51778,13.0,73476.8,-3.25,-3.91,-3.91,0,*58
1506049619.91,51779,13.0,73476.3,-3.25,-4.01,-3.91,0,*57
1506049621.14,51780,13.06,73480.3,-3.25,-4.05,-4.05,0,*5F
1506049622.36,51781,13.0,73478.8,-3.25,-4.05,-4.05,0,*5E
1506049623.58,51782,13.0,73474.0,-3.25,-4.05,-4.05,0,*5D
1506049624.8,51783,13.0,73476.8,-3.25,-4.05,-4.05,0,*5C
1506049626.05,51784,13.0,73476.0,-3.23,-4.01,-4.01,0,*5D
1506049627.27,51785,13.0,73474.3,-3.25,-4.05,-4.05,0,*5A
1506049628.52,51786,13.0,73472.3,-3.23,-4.01,-4.01,0,*5F
1506049629.72,51787,13.0,73476.5,-3.27,-4.09,-4.09,0,*5A
1506049630.91,51788,13.06,73478.5,-3.27,-4.09,-4.13,0,*5E
1506049632.11,51789,13.0,73472.8,-3.27,-4.13,-4.13,0,*54
1506049633.32,51790,13.0,73476.8,-3.27,-4.21,-4.21,0,*5C
1506049634.52,51791,13.0,73476.0,-3.27,-4.21,-4.21,0,*5D
1506049635.75,51792,13.0,73478.5,-3.29,-4.21,-4.13,0,*51
1506049636.99,51793,13.0,73476.0,-3.29,-4.21,-4.21,0,*51
1506049638.2,51794,13.0,73474.3,-3.27,-4.21,-4.21,0,*58
1506049639.39,51795,13.06,73476.8,-3.27,-4.13,-4.13,0,*59
1506049640.6,51796,13.0,73476.5,-3.27,-4.21,-4.21,0,*5A
1506049641.81,51797,13.0,73476.3,-3.27,-4.21,-4.21,0,*5B
1506049643.04,51798,13.0,73478.0,-3.29,-4.21,-4.21,0,*5A
1506049644.25,51799,13.0,73478.0,-3.27,-4.21,-4.21,0,*55
1506049645.48,51800,13.06,73478.0,-3.29,-4.13,-4.21,0,*55
1506049646.7,51801,13.0,73476.0,-3.29,-4.13,-4.21,0,*54
1506049647.91,51802,13.0,73474.8,-3.27,-4.21,-4.25,0,*5C
1506049649.13,51803,13.06,73478.3,-3.29,-4.13,-4.21,0,*56
1506049650.34,51804,13.0,73472.5,-3.27,-4.21,-4.21,0,*5E
1506049651.55,51805,13.06,73476.5,-3.27,-4.25,-4.21,0,*5B
1506049652.78,51806,13.0,73476.5,-3.29,-4.25,-4.21,0,*56
1506049654.0,51807,13.0,73478.3,-3.29,-4.33,-4.25,0,*54
1506049655.23,51808,13.0,73476.5,-3.29,-4.25,-4.33,0,*5B
1506049656.45,51809,13.0,73478.3,-3.29,-4.25,-4.25,0,*5D
1506049657.68,51810,13.0,73476.5,-3.33,-4.37,-4.29,0,*51
1506049658.9,51811,13.0,73478.8,-3.33,-4.37,-4.37,0,*5F
1506049660.12,51812,13.0,73476.5,-3.33,-4.37,-4.29,0,*53
1506049661.35,51813,13.0,73476.5,-3.33,-4.29,-4.37,0,*52
1506049662.57,51814,13.0,73478.3,-3.33,-4.37,-4.37,0,*5A
1506049663.8,51815,13.0,73476.8,-3.33,-4.41,-4.37,0,*5A
1506049665.02,51816,13.0,73476.3,-3.33,-4.37,-4.37,0,*58
1506049666.25,51817,13.06,73480.3,-3.33,-4.37,-4.37,0,*59
1506049667.45,51818,13.0,73474.0,-3.35,-4.29,-4.41,0,*5E
1506049668.67,51819,13.0,73478.3,-3.33,-4.37,-4.37,0,*57
1506049669.9,51820,13.0,73476.0,-3.33,-4.29,-4.37,0,*52
1506049671.1,51821,13.06,73478.8,-3.35,-4.37,-4.37,0,*5A
1506049672.33,51822,13.0,73478.3,-3.33,-4.37,-4.37,0,*5F
1506049673.53,51823,13.0,73478.8,-3.35,-4.29,-4.37,0,*57
1506049674.73,51824,13.0,73476.3,-3.35,-4.29,-4.29,0,*5F
1506049675.96,51825,13.06,73480.3,-3.37,-4.33,-4.33,0,*5C
1506049677.16,51826,13.0,73478.3,-3.35,-4.29,-4.25,0,*51
1506049678.37,51827,13.0,73476.3,-3.35,-4.25,-4.25,0,*5C
1506049679.58,51828,13.06,73482.0,-3.35,-4.25,-4.25,0,*53
1506049680.8,51829,13.0,73478.3,-3.33,-4.17,-4.17,0,*54
1506049682.0,51830,13.0,73476.0,-3.35,-4.17,-4.17,0,*5A
1506049683.2,51831,13.0,73478.3,-3.35,-4.25,-4.17,0,*5A
1506049684.39,51832,13.06,73476.8,-3.35,-4.17,-4.17,0,*58
1506049685.59,51833,13.0,73476.3,-3.35,-4.17,-4.17,0,*59
1506049686.79,51834,13.0,73476.0,-3.35,-4.25,-4.25,0,*5E
1506049688.0,51835,13.0,73476.3,-3.35,-4.17,-4.25,0,*5E
1506049689.19,51836,13.0,73476.5,-3.35,-4.17,-4.17,0,*5C
1506049690.41,51837,13.06,73480.0,-3.33,-4.17,-4.17,0,*5B
1506049691.61,51838,13.06,73482.3,-3.35,-4.17,-4.17,0,*52
1506049692.81,51839,13.0,73478.0,-3.35,-4.17,-4.17,0,*53
1506049694.0,51840,13.0,73476.8,-3.35,-4.17,-4.17,0,*5D
1506049695.2,51841,13.0,73476.0,-3.35,-4.17,-4.17,0,*5C
1506049696.43,51842,13.06,73478.3,-3.33,-4.17,-4.25,0,*58
1506049697.64,51843,13.0,73478.3,-3.33,-4.17,-4.17,0,*58
1506049698.84,51844,13.06,73480.3,-3.35,-4.13,-4.17,0,*5D
1506049700.04,51845,13.06,73480.0,-3.35,-4.13,-4.17,0,*5C
1506049701.27,51846,13.06,73478.5,-3.33,-4.13,-4.13,0,*5D
1506049702.47,51847,13.0,73478.0,-3.35,-4.17,-4.13,0,*5E
1506049703.69,51848,13.0,73478.0,-3.33,-4.17,-4.13,0,*57
1506049704.9,51849,13.0,73476.5,-3.35,-4.17,-4.13,0,*50
1506049706.1,51850,13.06,73482.8,-3.35,-4.17,-4.13,0,*58
1506049707.32,51851,13.06,73482.0,-3.33,-4.17,-4.13,0,*5F
1506049708.53,51852,13.06,73478.5,-3.35,-4.13,-4.13,0,*5E